Location: Ebersheim
(48.3033°N, 7.4991°E)
Time: 18:09:43
(UTC+00:00)

CZ-2C R/B - Pass Details

Date: 27 February 2020
Orbit: 641 x 704 km, 98.4° (Epoch: 05 April)

Event Time Altitude Azimuth Distance (km) Brightness Sun altitude
Rises 19:40:06 0° 12° (NNE) 3,043 7.2 -25.5°
Reaches altitude 10° 19:42:20 10° 11° (N) 2,134 6.4 -25.8°
Maximum altitude 19:47:00 75° 287° (WNW) 718 3.8 -26.6°
Drops below altitude 10° 19:51:42 10° 202° (SSW) 2,151 6.3 -27.3°
Sets 19:53:57 0° 201° (SSW) 3,070 7.1 -27.7°
